Location: Norton
(51.3000°N, 0.8167°E)
Time: 12:44:30
(UTC+00:00)

Cosmos 1943 Rocket - Pass Details

Date: 03 March 2021
Orbit: 811 x 844 km, 71.0° (Epoch: 16 April)

Event Time Altitude Azimuth Distance (km) Brightness Sun altitude
Rises 18:57:25 0° 325° (NW) 3,414 6.0 -12.7°
Reaches altitude 10° 19:01:33 10° 354° (N) 2,478 4.8 -13.3°
Maximum altitude 19:03:56 13° 19° (NNE) 2,297 4.3 -13.7°
Drops below altitude 10° 19:06:19 10° 44° (NE) 2,474 4.3 -14.1°
Enters shadow 19:07:06 - 51° (NE) 2,603 4.3 -14.2°
